Location: Marcé
(47.5801°N, 0.3280°W)
Time: 06:36:01
(UTC+01:00)

Altair - Pass Details

Date: 16 December 2021
Orbit: 1501 x 1683 km, 47.2° (Epoch: 21 January)

Event Time Altitude Azimuth Distance (km) Brightness Sun altitude
Rises 13:18:28 0° 228° (SW) 4,874 10.9 18.9°
Reaches altitude 10° 13:21:42 10° 225° (SW) 3,868 10.6 18.9°
Maximum altitude 13:31:14 58° 150° (SSE) 1,822 8.7 18.7°
Drops below altitude 10° 13:40:26 10° 75° (ENE) 3,737 9.3 18.4°
Sets 13:43:30 0° 72° (ENE) 4,701 9.8 18.3°
